This is the latest recevied weather packets stored in our database for station/object CE4ERM-13. If no packets are shown the sender has not sent any weather packets the latest 10 day(s).
| Time | Temp. | Humidity | Pressure | Rain* | Wind** | Luminosity | Snow |
|---|---|---|---|---|---|---|---|
| 1777864812 | 21.11° C | 35% | 1020.1 hPa | - | - | - | - |
| 1777864638 | 22.78° C | 28% | 1019.9 hPa | - | - | - | - |
| 1777864211 | 21.67° C | 35% | 1021.4 hPa | - | - | - | - |
| 1777864038 | 22.78° C | 28% | 1019.7 hPa | - | - | - | - |
| 1777863612 | 21.67° C | 35% | 1024.4 hPa | - | - | - | - |
| 1777863011 | 21.67° C | 35% | 1019.9 hPa | - | - | - | - |
| 1777862837 | 23.33° C | 27% | 1018.9 hPa | - | - | - | - |
| 1777862411 | 21.67° C | 35% | 1019.6 hPa | - | - | - | - |
| 1777861037 | 23.89° C | 26% | 1019.6 hPa | - | - | - | - |
| 1777860609 | 22.22° C | 34% | 1020.7 hPa | - | - | - | - |
| 1777860435 | 24.44° C | 25% | 1018.6 hPa | - | - | - | - |
| 1777860009 | 22.22° C | 34% | 1021.4 hPa | - | - | - | - |
| 1777859835 | 23.89° C | 26% | 1020.4 hPa | - | - | - | - |
| 1777859410 | 22.22° C | 33% | 1020.1 hPa | - | - | - | - |
| 1777859235 | 24.44° C | 25% | 1017.9 hPa | - | - | - | - |
| 1777858810 | 22.78° C | 32% | 1021.2 hPa | - | - | - | - |
| 1777858635 | 25° C | 24% | 1017.5 hPa | - | - | - | - |
| 1777858216 | 22.78° C | 30% | 1017.1 hPa | - | - | - | - |
| 1777858034 | 26.11° C | 24% | 1016.8 hPa | - | - | - | - |
| 1777857609 | 22.78° C | 28% | 1019.3 hPa | - | - | - | - |
| 1777857434 | 26.11° C | 23% | 1017.9 hPa | - | - | - | - |
| 1777857009 | 22.78° C | 29% | 1020.1 hPa | - | - | - | - |
| 1777856833 | 26.11° C | 24% | 1016.8 hPa | - | - | - | - |
| 1777856410 | 22.78° C | 29% | 1020.3 hPa | - | - | - | - |
| 1777856233 | 25.56° C | 27% | 1018.8 hPa | - | - | - | - |
* Rain since midnight (hover to see other rain measurements)
** Current wind speed in m/s (hover to see current wind gust speed)